Theta_e
300 301 301 301 301 301 301 301 300 301 302 304 303 305 306 309 304 303 310 313 309 310 312 315 315 317 316 317 318 320 321 321 323 325 323 323 322 321 320 322 324 325 326 329 332 333 334 335 336 338 341 345 349 350 354 356 355 356 358 356 354 354 357 360 361 364 365 363 363 362 360 360 359 355 352 350 351 350 350 349 348 349 347 344 347 352 356
298 299 300 300 299 299 299 300 300 301 302 303 305 305 307 307 310 312 310 312 311 311 313 315 315 318 318 319 320 320 320 319 322 323 323 322 322 322 321 322 323 325 325 327 329 331 333 335 336 337 339 343 346 347 350 352 354 355 357 358 355 356 355 358 360 363 366 367 365 365 363 361 363 362 357 352 349 349 350 349 352 352 352 349 345 347 352
297 298 298 299 299 299 298 299 300 300 301 303 304 306 308 309 307 310 311 310 309 313 316 315 317 319 319 320 318 318 319 319 320 320 321 322 322 323 324 325 324 325 326 326 328 329 331 336 337 337 338 340 343 345 349 351 353 356 354 354 351 350 355 357 360 362 364 365 366 367 367 364 365 366 363 358 356 360 356 354 357 361 354 349 346 345 347
297 297 297 297 298 298 298 298 299 299 300 300 303 303 307 305 305 308 309 308 308 312 316 316 317 317 317 317 318 318 318 319 320 319 320 321 322 323 324 324 325 325 325 326 327 328 330 332 335 336 337 338 340 342 346 349 352 354 354 355 352 354 354 357 360 361 361 362 365 366 367 368 367 367 365 364 363 361 355 353 361 355 353 352 353 347 345
296 297 297 297 297 296 294 295 298 300 301 303 305 308 308 310 309 307 305 309 313 313 316 314 314 316 316 317 317 318 319 319 319 319 320 321 321 323 324 324 324 325 326 327 328 328 329 330 331 334 337 337 339 342 343 347 350 350 352 353 351 351 355 358 358 359 361 360 362 364 366 368 368 367 367 365 362 359 355 356 357 361 362 356 355 352 348
296 297 296 297 294 288 291 302 303 303 301 305 304 305 306 310 310 308 312 312 314 314 314 313 313 315 315 316 318 320 319 318 319 319 320 321 322 323 323 324 324 325 327 328 328 329 331 331 329 332 334 334 338 341 343 345 345 348 348 349 352 352 353 356 359 359 359 360 359 363 365 367 366 365 365 365 362 359 358 359 359 359 359 360 359 361 356
296 297 296 291 287 290 303 306 307 307 307 306 305 307 309 309 312 312 311 312 312 313 314 315 315 315 316 317 319 319 317 320 319 319 319 320 322 322 323 324 323 325 326 328 330 329 330 330 330 330 331 331 335 339 341 341 342 343 345 346 349 351 353 354 356 356 359 358 359 362 362 364 363 363 365 365 363 360 357 357 358 360 359 360 361 361 359
300 295 293 284 288 300 304 303 304 306 304 303 305 305 308 309 309 312 310 311 312 313 313 314 314 315 315 318 318 318 320 320 320 318 318 318 318 320 322 323 324 325 325 327 329 329 333 331 329 331 331 331 333 337 340 339 339 340 341 341 342 345 348 349 353 356 359 360 359 359 361 363 361 360 361 363 363 362 360 356 356 358 361 361 360 360 360
293 294 293 292 301 299 300 299 302 301 300 301 301 298 303 308 309 309 310 310 311 311 312 313 314 314 314 314 316 319 320 319 318 317 318 318 318 319 320 320 323 326 327 326 329 331 331 332 331 331 333 331 332 335 335 337 338 339 339 339 339 340 343 346 348 350 351 352 356 361 360 359 359 359 360 361 362 364 361 358 354 354 358 359 362 360 360
298 294 292 293 291 289 296 302 306 306 308 308 307 304 302 309 310 310 310 310 310 310 311 311 312 312 311 309 311 317 316 316 316 317 318 318 319 319 319 321 321 324 324 324 327 329 330 331 331 332 334 332 332 333 335 334 336 336 337 336 337 339 339 341 343 346 348 351 354 355 359 358 357 359 361 359 359 361 361 360 357 354 355 357 360 361 360
296 293 291 291 287 292 303 303 305 307 309 308 306 300 296 308 310 309 310 309 309 310 310 311 311 307 304 306 311 314 314 314 315 315 316 316 317 318 319 319 320 321 322 323 325 327 327 327 329 331 333 333 332 330 332 333 336 336 336 336 336 336 338 340 341 344 347 351 353 353 355 356 357 352 352 353 358 363 360 357 359 360 359 355 355 358 358
297 295 291 290 296 296 304 305 305 305 308 305 302 290 291 308 310 309 309 309 309 310 311 310 308 307 304 307 311 312 313 313 314 315 315 316 316 316 317 318 321 322 323 323 322 323 323 327 327 329 331 332 332 332 332 332 334 335 336 337 338 338 338 338 340 342 345 347 350 352 354 355 357 351 355 354 353 354 356 356 355 359 357 358 356 355 356
295 295 294 296 298 305 307 306 307 306 306 302 294 288 300 311 310 311 312 311 311 312 309 309 305 310 311 311 313 312 313 312 313 315 316 316 317 317 317 318 321 320 321 322 320 320 323 325 325 326 329 328 329 332 333 332 333 333 334 336 339 339 338 337 339 342 344 345 346 348 351 353 358 352 351 352 353 352 353 353 355 354 354 357 357 356 355
294 295 292 293 297 305 308 308 308 307 301 292 292 306 313 312 310 312 311 310 311 311 310 310 310 311 312 312 311 312 312 312 314 315 315 316 317 318 320 320 320 319 319 321 322 321 323 322 324 325 327 327 329 330 331 331 334 335 335 336 337 338 338 337 338 340 342 344 345 346 350 354 356 354 355 355 354 355 356 355 355 353 355 356 357 356 356
297 297 295 292 287 303 310 308 306 306 297 301 310 311 312 313 311 311 309 310 310 310 309 310 310 309 309 310 310 311 313 312 313 314 315 316 316 317 318 318 319 319 319 319 320 323 323 323 324 324 325 326 328 330 329 331 333 335 336 336 336 336 337 338 338 339 341 342 343 346 348 352 354 355 357 356 354 354 354 355 355 356 357 358 358 356 358
294 294 291 291 300 307 310 308 302 305 305 312 313 311 309 311 311 310 310 310 310 310 309 308 308 309 309 309 311 312 312 312 314 314 316 317 317 317 317 317 319 319 319 320 321 322 322 325 325 325 324 325 327 328 329 333 333 334 335 335 335 335 336 337 337 339 340 341 342 345 348 351 353 354 355 356 354 354 354 352 352 353 353 356 358 358 357
299 296 300 305 308 310 311 310 310 312 313 314 314 312 311 310 310 312 310 311 312 311 310 309 309 308 309 309 310 309 310 312 313 313 314 315 315 316 316 316 319 319 319 319 319 321 322 325 326 326 326 324 326 327 330 332 333 332 333 334 334 333 334 334 336 336 337 340 342 344 346 347 348 351 353 355 354 355 355 354 353 352 353 356 357 357 359
307 308 308 312 310 309 309 309 312 312 313 315 312 310 308 310 311 312 310 311 311 311 311 309 309 309 309 310 309 310 311 311 312 314 314 315 316 316 316 317 318 318 318 319 319 320 322 324 325 326 327 326 324 326 330 332 333 332 332 333 333 333 333 333 334 335 335 338 340 342 342 344 346 349 351 352 352 353 355 353 354 354 355 356 354 353 351
299 294 307 306 308 309 309 309 311 311 312 314 312 310 310 312 313 312 312 311 311 310 311 310 310 309 309 309 310 312 312 312 313 313 313 314 314 314 315 316 317 317 318 316 317 318 319 322 323 324 325 326 327 327 328 330 331 332 332 332 331 332 332 332 333 334 335 335 336 339 342 342 343 346 350 351 350 351 352 352 352 353 351 350 347 347 347
299 300 305 307 309 310 311 309 309 309 310 312 312 312 313 313 314 313 313 312 310 310 309 310 310 310 311 310 311 311 311 312 312 312 312 313 313 314 315 316 317 317 316 316 316 317 317 319 321 323 323 325 326 327 326 326 328 331 330 330 330 330 331 332 333 333 334 334 335 334 337 339 339 341 344 346 346 348 350 351 347 348 349 348 347 346 347
303 305 307 308 309 309 310 310 311 311 312 312 313 312 312 311 312 312 312 312 311 310 309 309 310 310 311 311 311 310 310 311 311 311 312 313 313 314 314 315 316 315 316 315 316 317 317 319 321 322 323 324 326 327 327 328 329 330 329 329 330 330 330 331 331 333 334 335 334 333 334 337 339 341 340 340 341 345 350 350 349 347 348 345 344 347 351
299 300 304 308 301 302 307 309 310 311 312 312 311 312 311 311 311 312 311 311 312 310 310 311 310 309 310 311 311 309 309 310 311 311 312 312 312 313 314 314 315 315 316 316 316 316 317 319 321 322 323 323 325 325 327 327 328 329 328 327 328 328 329 329 330 331 332 332 332 332 333 334 335 337 336 324 332 339 338 338 331 321 321 341 345 348 348
300 306 308 310 309 308 309 311 312 313 312 311 310 311 311 311 312 313 312 311 311 311 311 312 311 310 310 310 310 309 309 310 311 311 312 311 312 312 313 313 314 314 315 316 315 316 317 319 319 320 321 323 324 325 326 327 327 328 328 326 325 325 327 328 328 329 329 330 332 333 333 333 333 332 333 337 315 309 317 322 318 312 306 306 309 314 332
307 309 309 310 309 308 311 313 312 312 313 311 311 311 312 312 312 313 312 312 311 311 312 311 311 310 309 310 309 309 310 310 312 311 312 312 313 313 314 313 314 314 314 315 315 316 317 318 318 319 320 321 322 324 326 327 327 328 328 326 324 324 326 326 328 329 329 330 331 331 331 331 331 330 331 331 334 321 305 310 311 306 304 303 302 303 305
307 312 311 311 310 312 314 314 314 313 313 313 310 310 311 312 312 312 312 312 313 311 309 309 310 311 310 310 310 309 309 309 310 311 311 311 311 311 312 313 313 313 314 314 315 316 317 318 319 319 320 320 321 323 326 326 327 326 327 325 325 325 326 326 326 328 327 329 329 330 329 329 329 329 329 328 328 331 343 306 303 306 306 305 303 302 303
312 310 310 311 311 311 313 313 311 312 313 312 311 311 312 313 313 313 312 312 311 310 310 309 309 310 311 310 309 309 309 309 310 311 310 311 310 310 311 311 312 313 314 314 315 315 316 317 317 318 319 320 322 323 323 326 326 326 326 324 324 324 324 324 325 325 326 327 328 328 329 329 329 327 328 329 329 330 329 332 340 324 308 303 302 303 301
312 313 311 308 307 308 311 310 310 314 314 313 313 312 312 312 312 313 313 312 311 311 310 310 310 310 311 310 310 310 309 309 310 310 310 310 310 310 310 311 312 313 313 313 314 315 315 317 318 318 318 319 321 322 323 324 325 325 326 325 324 325 326 326 324 324 325 326 326 327 327 328 327 327 328 328 329 328 329 331 331 331 336 346 321 299 329
311 311 311 306 305 306 310 313 314 315 315 313 311 311 312 312 311 310 310 310 310 310 311 312 310 310 308 309 310 309 308 309 308 309 309 308 309 311 312 312 311 311 312 313 314 316 318 318 318 318 319 320 322 323 323 324 324 324 326 325 325 324 323 323 323 324 325 326 326 326 326 327 328 327 326 327 327 329 328 329 330 332 334 335 337 326 318
309 311 313 313 312 313 314 315 315 313 314 312 312 311 312 310 309 308 308 309 310 310 309 311 311 311 309 309 309 308 309 309 308 308 308 310 310 310 311 311 311 311 311 312 313 314 315 316 317 317 319 320 321 322 323 324 324 324 324 324 323 322 323 322 323 323 323 325 326 325 323 323 325 325 327 327 328 329 329 329 330 331 331 333 335 336 332
309 311 311 314 314 315 313 312 312 313 312 311 310 310 311 310 307 307 307 308 308 308 309 310 310 309 309 308 309 309 309 309 309 309 309 309 310 311 310 310 310 310 311 311 311 311 312 314 316 318 319 320 321 323 322 323 323 324 324 323 323 323 323 323 324 325 323 323 323 321 322 323 325 327 326 327 327 327 327 328 329 328 329 331 330 331 332
309 310 310 312 314 314 312 312 312 312 312 311 311 311 311 310 308 307 307 308 308 308 309 309 309 309 308 308 310 311 311 310 309 309 309 309 310 310 310 309 307 307 308 309 310 310 310 311 315 316 319 321 323 324 324 322 323 322 322 322 322 321 320 320 320 321 320 319 321 321 323 323 324 325 325 325 325 325 326 327 327 326 327 328 329 328 330
308 308 309 309 311 311 312 312 312 311 310 311 311 311 311 309 308 307 308 307 307 308 309 309 308 308 308 310 311 311 310 310 309 309 309 309 309 309 309 309 309 309 309 309 310 309 310 310 311 315 316 318 321 323 323 321 321 321 319 320 321 321 320 321 320 320 320 320 320 321 322 322 322 323 323 324 324 324 325 325 324 325 325 325 326 328 326
306 305 306 308 310 311 310 311 311 310 309 309 311 312 312 311 310 309 309 309 308 309 308 308 308 308 309 310 310 310 309 309 308 308 308 308 308 308 309 309 309 308 309 309 310 310 308 308 309 312 313 314 315 317 317 317 318 318 318 319 319 319 320 318 318 318 319 319 320 320 322 321 321 322 322 322 323 323 323 323 323 323 323 324 324 325 317
311 310 310 310 310 308 309 310 311 310 311 312 313 313 313 311 310 310 309 309 308 308 307 308 308 309 309 310 310 309 308 307 306 306 306 307 307 308 308 308 308 308 308 309 310 309 308 308 309 310 311 312 314 315 317 318 317 317 318 317 317 317 317 318 318 319 319 318 319 320 321 321 320 320 321 321 321 321 320 320 321 321 321 321 322 323 311
315 315 315 312 313 312 314 312 311 309 308 309 311 312 313 312 310 309 309 309 308 308 309 309 309 309 309 309 309 308 307 306 306 306 306 306 307 307 308 307 307 307 308 308 308 307 308 308 309 309 310 311 312 314 316 316 315 315 316 316 317 317 317 318 318 318 318 318 319 319 319 319 319 320 320 320 319 319 319 319 318 318 317 318 319 320 317
315 315 314 314 313 312 313 313 312 312 310 309 311 312 313 312 311 309 309 309 309 309 309 308 309 309 309 309 308 307 307 307 306 306 306 305 306 307 306 306 305 305 305 306 308 308 308 308 310 311 309 310 310 311 312 312 312 312 314 314 315 316 316 316 317 317 318 317 318 318 318 318 318 318 317 318 318 318 317 317 317 316 315 315 316 316 315
316 314 314 313 313 313 313 314 313 311 310 309 311 313 313 313 311 310 310 310 309 309 309 309 308 308 307 308 308 308 308 307 306 306 305 306 306 306 305 305 305 304 304 303 305 307 307 307 309 310 309 308 308 309 310 313 312 312 312 312 313 314 314 315 316 316 316 317 318 317 317 317 317 317 318 318 317 316 316 315 315 314 313 313 313 312 312
315 315 314 312 312 311 312 313 312 311 310 311 313 314 314 313 312 310 309 309 309 308 309 309 309 309 309 309 308 307 306 306 306 306 306 306 305 304 304 304 303 303 302 303 306 306 306 307 308 308 306 307 307 307 309 312 312 310 310 311 311 312 312 313 314 315 315 316 317 316 315 314 315 315 315 316 316 316 315 313 312 311 311 311 310 310 309
314 315 314 313 313 312 311 312 313 313 313 313 313 313 313 313 312 311 309 308 308 308 309 309 309 309 308 307 306 305 304 305 305 305 304 303 304 304 303 304 304 304 305 306 306 306 307 307 307 306 305 306 306 306 308 310 311 309 309 309 310 311 311 312 312 313 314 315 314 314 314 313 314 313 313 313 314 313 313 311 310 310 310 309 308 307 307
307 310 313 313 312 313 312 312 312 312 313 313 312 310 311 311 311 310 309 308 309 309 309 309 308 306 306 305 304 304 304 305 305 304 304 304 304 304 303 304 307 307 307 306 305 306 306 307 306 305 305 305 305 305 307 308 309 308 308 308 309 309 310 311 311 312 312 313 313 313 312 312 312 312 312 312 311 311 311 311 310 309 307 307 306 305 305
306 305 306 309 312 313 313 313 309 310 311 311 311 310 311 310 311 309 307 307 308 309 309 308 307 306 305 305 304 304 305 305 305 305 305 304 302 301 300 300 306 307 306 305 305 306 306 306 306 304 304 304 304 306 306 307 306 306 307 307 307 308 308 309 310 310 310 310 311 310 309 309 309 309 310 310 310 310 310 309 308 307 306 305 305 304 304
308 308 306 306 308 311 312 312 309 308 308 310 309 310 309 309 309 308 308 308 308 309 309 308 306 307 307 306 306 305 305 305 305 305 304 303 301 300 299 301 305 306 304 304 305 305 306 305 305 305 303 303 304 306 306 305 305 306 305 305 306 306 307 308 308 309 309 309 308 308 308 308 307 308 308 308 308 308 308 308 307 305 304 303 303 303 302
309 310 307 306 306 307 309 309 309 308 307 308 308 309 308 309 309 308 307 308 307 307 307 307 305 305 305 306 305 304 304 304 304 304 304 304 304 304 303 303 305 305 303 304 304 304 304 304 304 303 303 303 303 305 305 304 304 303 303 303 305 305 306 307 307 307 307 307 307 307 306 306 305 305 305 305 306 307 306 305 304 304 303 302 302 301 301
305 307 309 310 310 307 307 307 306 308 308 308 307 308 308 308 308 307 307 307 307 307 306 306 306 306 306 305 305 303 303 303 303 303 302 301 302 304 305 303 303 304 303 303 304 303 302 302 302 302 303 303 303 304 304 303 302 302 302 303 303 304 304 304 305 305 305 306 306 305 305 305 304 304 304 304 304 305 304 303 303 303 302 301 301 300 300
306 307 307 309 310 312 311 309 308 307 307 308 308 309 309 307 307 307 307 307 306 306 306 306 306 305 305 305 305 305 304 304 304 303 300 299 299 299 303 303 302 302 302 302 303 302 301 301 301 302 302 302 303 304 304 303 303 303 302 302 302 302 303 303 303 303 303 304 304 304 304 304 304 304 303 304 303 303 302 302 301 301 301 300 299 299 299
307 306 306 307 309 309 311 312 311 309 308 307 308 309 307 307 307 307 307 306 306 306 306 306 306 305 305 305 306 305 305 305 305 305 304 302 300 301 303 303 304 302 302 303 302 301 300 300 300 300 301 302 302 302 302 302 303 302 302 301 302 302 302 302 302 302 303 303 303 303 303 303 303 303 302 302 301 301 300 300 300 300 300 299 299 299 299
308 307 305 305 308 311 312 311 309 308 307 306 305 305 305 306 306 306 307 308 309 306 306 306 306 306 306 306 305 304 303 303 304 304 305 304 304 303 303 302 302 301 302 302 300 300 300 299 299 300 300 300 301 300 300 300 300 300 301 301 301 301 301 301 302 302 302 302 302 302 302 302 302 302 302 301 301 300 300 300 300 299 299 299 298 298 298
307 306 304 306 308 309 310 308 306 305 305 304 305 305 306 306 305 305 307 308 308 308 307 306 306 306 306 306 306 305 305 303 301 302 305 304 304 304 303 302 302 301 301 301 300 300 300 299 299 299 299 299 300 299 298 298 298 299 298 299 300 300 299 300 300 301 301 301 301 301 301 301 301 302 301 300 300 300 300 299 300 299 299 298 297 297 297
306 306 305 305 307 308 308 308 306 306 305 307 307 307 305 305 305 305 307 308 308 307 307 306 306 306 306 305 305 305 305 306 304 302 304 305 304 303 302 302 301 301 301 300 299 300 300 299 299 299 299 299 298 298 297 297 297 297 297 297 298 298 298 299 299 300 300 299 300 299 299 299 299 299 299 299 299 299 298 298 298 298 298 298 298 298 298
304 306 304 305 306 305 307 305 303 306 307 307 308 308 307 306 304 305 307 307 307 306 307 305 306 305 305 305 304 305 305 305 305 306 305 305 304 304 303 302 302 301 300 300 300 299 300 300 299 299 299 298 298 298 297 296 296 296 296 296 296 296 297 297 297 298 299 298 298 298 298 297 297 298 298 298 297 297 297 297 297 297 296 297 297 297 297
304 305 305 307 307 308 307 306 308 309 308 307 307 308 308 306 305 305 305 306 306 305 306 303 303 304 304 304 304 305 305 305 305 304 304 304 304 303 302 302 302 301 302 301 301 300 300 299 299 299 298 298 298 298 297 297 296 296 295 295 294 295 295 295 295 295 296 297 297 297 297 297 296 296 296 296 296 296 296 296 296 297 296 296 295 295 295
306 306 307 307 307 305 304 306 307 308 307 307 306 306 306 306 305 305 305 305 306 304 305 304 301 303 303 303 304 303 304 304 304 304 303 303 303 302 302 301 302 301 301 301 301 301 300 300 300 299 298 298 297 297 298 298 297 296 296 296 294 294 295 295 295 294 293 294 294 295 295 295 296 295 295 295 295 295 295 295 295 295 296 296 295 295 294
Wind_Speed
1 4 6 6 4 5 3 2 2 1 0 3 7 3 4 7 8 3 12 12 16 14 12 11 10 8 7 7 7 7 7 6 8 9 11 12 14 14 14 15 15 15 16 15 15 16 15 15 16 15 12 11 8 9 9 6 6 7 8 10 11 11 10 9 9 10 9 10 11 11 12 11 12 12 12 12 11 11 11 12 13 13 14 14 14 14 13
2 0 1 1 2 2 4 3 2 3 5 3 1 2 3 1 5 11 13 12 12 11 11 11 9 7 6 6 4 5 6 7 6 9 11 12 13 13 14 14 14 13 14 15 15 15 15 15 14 13 12 11 10 10 9 9 10 9 7 7 8 6 7 7 8 8 8 8 9 10 11 12 12 12 13 13 13 13 12 12 11 11 11 12 14 14 14
4 2 4 6 3 2 6 5 4 2 4 3 3 2 3 4 7 7 9 13 11 10 10 10 8 7 7 4 6 7 6 9 8 7 10 11 12 13 13 12 13 13 13 13 14 14 14 14 13 12 12 12 12 11 10 10 10 9 10 8 9 10 8 7 8 7 7 8 9 9 9 11 11 11 12 12 11 10 11 11 11 9 10 13 14 14 15
6 6 6 4 5 5 7 6 6 7 6 8 5 6 3 5 5 7 9 11 10 10 8 8 8 7 7 7 5 6 6 6 6 8 8 9 10 12 12 12 12 12 13 13 13 13 13 13 13 12 11 10 10 11 11 11 9 8 7 7 10 9 7 10 8 7 7 8 9 9 9 10 10 11 11 11 10 11 12 13 11 13 13 13 11 13 13
4 8 3 4 3 6 9 11 9 7 7 5 4 3 4 5 3 8 9 5 8 9 10 9 10 9 7 7 5 5 6 5 6 7 8 9 9 11 11 11 12 12 12 12 13 13 13 12 11 11 11 10 10 10 10 9 8 8 8 6 6 10 9 9 9 7 7 9 10 9 10 10 10 10 11 11 12 13 14 13 13 12 12 13 13 13 13
4 6 5 3 7 9 4 6 7 7 7 5 4 4 4 4 4 2 5 10 11 9 9 7 7 8 7 6 4 2 3 3 4 5 5 7 7 8 9 11 11 11 11 11 12 13 12 12 13 12 12 12 10 10 10 9 8 8 8 8 4 5 9 8 7 6 7 8 9 9 9 9 11 12 12 12 13 13 13 13 13 13 15 14 13 12 13
3 6 5 6 8 4 9 5 7 5 6 2 3 2 6 4 8 9 9 9 8 5 2 8 6 5 3 4 9 6 6 3 4 3 5 6 7 8 8 10 11 11 11 11 11 12 12 12 12 11 11 11 11 10 9 10 10 10 9 8 9 9 9 9 6 5 6 8 9 9 9 10 10 12 12 13 14 13 13 14 14 14 14 15 14 14 15
1 3 6 5 3 9 5 6 4 6 1 3 3 3 4 2 4 7 8 11 8 6 6 8 6 4 4 8 6 4 7 2 3 4 4 5 6 7 7 8 8 9 11 11 11 11 10 10 10 11 11 11 10 10 10 10 10 10 10 10 10 11 10 9 10 8 7 7 7 7 9 9 10 13 13 13 14 12 12 13 13 13 13 13 14 15 15
6 5 6 4 8 7 8 6 6 5 5 7 7 6 9 10 5 4 6 10 8 10 10 5 9 4 5 6 7 7 4 5 2 3 4 5 6 7 7 8 7 7 8 10 10 10 10 9 10 11 10 11 11 10 11 11 10 10 10 10 11 10 11 12 12 11 9 9 9 7 8 11 12 14 15 14 14 12 13 13 14 14 14 14 12 14 15
6 5 7 7 6 8 9 6 7 6 3 1 1 5 2 9 6 3 4 8 6 7 1 4 2 3 6 7 7 9 9 4 4 3 4 5 5 7 7 7 7 7 9 9 9 9 10 9 10 10 9 10 10 11 10 11 10 10 11 11 11 11 11 11 11 12 11 10 10 9 9 10 11 11 11 12 12 12 12 12 12 14 14 12 13 13 15
6 7 7 7 4 2 9 8 9 7 4 4 3 5 6 8 8 6 5 7 9 4 6 5 4 6 7 3 9 5 4 5 4 5 6 7 7 7 7 8 8 9 9 9 9 8 9 9 10 10 9 9 9 10 11 11 10 10 10 10 10 11 12 12 11 11 11 11 11 11 11 11 5 8 11 10 9 9 8 10 8 9 9 12 13 13 14
6 6 7 7 4 5 7 10 8 8 3 4 6 7 6 12 9 7 6 6 9 5 3 1 3 4 6 7 3 7 4 5 5 5 6 7 7 8 8 7 9 9 8 9 8 9 9 8 10 10 8 8 9 9 10 10 9 10 10 10 9 9 10 11 11 11 11 11 11 11 12 11 0 1 5 5 5 9 8 7 8 10 10 11 12 13 14
6 6 6 7 3 8 11 10 9 8 4 4 7 6 7 6 9 5 5 7 6 5 5 4 4 2 5 5 3 5 6 6 6 6 6 7 7 8 9 9 10 8 8 8 9 10 9 8 9 9 8 9 10 9 9 9 9 10 10 10 10 9 9 10 11 11 11 11 13 13 12 11 6 4 4 7 6 6 6 6 9 10 11 11 12 14 15
8 6 8 7 1 8 9 8 9 9 6 7 4 8 6 8 9 6 6 7 5 5 3 1 3 4 5 7 6 6 7 7 7 7 8 8 8 8 8 9 8 8 8 9 9 10 10 10 10 9 9 9 9 9 9 9 10 9 9 10 10 10 10 10 11 11 11 11 11 11 11 10 7 2 6 9 9 8 6 7 9 10 9 9 11 14 14
7 6 7 4 7 7 8 10 8 5 8 4 8 8 8 8 9 7 6 4 7 3 4 3 1 3 4 6 7 8 8 9 9 9 8 8 9 9 10 9 9 9 9 10 10 10 10 10 10 10 11 11 10 8 9 10 9 8 9 9 10 10 10 9 9 10 11 11 10 9 9 9 9 7 6 7 7 7 8 8 9 8 8 10 12 13 14
7 7 8 3 4 10 11 8 3 8 2 7 7 7 6 4 5 4 5 4 3 3 1 1 2 3 4 5 4 5 5 6 7 7 7 8 8 9 9 10 10 11 10 10 10 11 11 10 10 10 10 11 10 11 11 9 9 9 9 9 9 10 9 9 9 9 10 11 10 10 10 9 9 8 6 6 7 6 7 9 10 9 9 11 12 13 13
6 3 4 4 4 8 7 3 6 4 9 6 4 1 2 6 4 3 2 3 5 3 0 1 2 4 3 3 5 6 5 5 6 7 9 9 9 9 9 10 10 10 10 12 12 13 11 11 10 10 10 11 12 12 11 9 9 10 10 9 9 9 10 9 9 8 9 10 10 8 10 10 10 9 7 7 7 7 8 7 9 11 11 11 12 12 10
6 8 1 2 0 3 5 3 4 6 7 5 4 5 4 4 2 4 2 4 4 4 3 3 2 3 2 3 4 5 5 7 7 7 7 8 9 10 10 10 10 11 11 12 12 13 12 12 11 10 10 10 13 12 11 10 10 10 9 10 10 10 10 10 10 9 10 9 9 10 10 9 10 9 8 7 8 7 7 8 9 9 9 9 9 9 8
3 4 6 10 8 5 5 4 5 4 5 6 5 5 5 2 4 3 3 2 2 3 1 4 3 3 3 4 3 3 5 6 7 8 8 9 9 10 11 11 12 11 12 12 13 13 13 13 12 11 12 11 11 12 12 11 10 10 10 10 11 11 10 10 10 9 9 8 8 9 10 8 8 9 8 7 7 7 7 7 5 6 7 6 6 8 10
8 6 3 2 3 3 4 6 6 8 6 7 6 4 4 4 4 5 5 5 5 4 5 5 3 3 3 2 3 4 3 4 7 8 8 9 10 10 11 12 12 12 12 13 14 14 13 13 12 12 12 12 12 12 13 13 12 11 10 9 10 11 12 11 10 9 8 8 9 7 9 10 9 8 9 8 8 8 8 5 5 5 4 5 5 7 7
9 11 11 7 6 7 6 7 7 6 7 7 7 6 5 6 7 6 5 5 4 4 4 2 3 4 3 4 4 4 4 5 5 7 8 9 10 11 12 12 12 11 12 14 14 15 15 13 13 13 13 13 13 13 12 12 12 11 10 10 10 11 11 10 9 8 8 7 7 7 8 9 10 9 9 9 10 11 10 7 8 8 6 5 6 6 5
9 8 5 7 11 9 9 11 10 8 7 8 9 8 8 7 7 7 7 6 6 6 3 2 3 4 3 3 4 6 5 6 8 8 9 10 11 12 12 12 13 13 14 14 15 15 15 14 14 14 14 13 13 13 12 12 12 12 11 10 9 10 10 9 9 8 7 8 8 7 8 8 10 11 12 11 9 9 10 9 5 9 7 8 7 5 6
8 3 4 5 5 6 6 3 3 5 8 9 9 9 9 9 8 7 7 6 6 5 4 5 4 5 6 5 5 6 7 7 9 10 11 11 11 12 13 14 15 14 14 15 16 17 16 15 15 15 14 14 13 13 12 12 13 12 11 9 10 10 10 9 8 8 8 8 8 7 7 8 9 10 11 11 11 14 14 14 15 16 15 14 12 10 9
10 10 10 10 8 8 6 6 6 6 7 8 10 9 9 9 9 8 7 6 6 5 4 5 6 6 6 6 7 8 9 9 9 10 10 11 11 12 12 13 14 15 15 16 16 16 15 15 15 15 15 14 14 14 13 13 13 13 11 10 11 11 10 10 9 9 8 8 9 8 8 9 9 10 10 11 12 9 13 14 14 17 18 16 13 13 13
8 5 8 10 10 9 8 9 8 7 8 8 9 10 10 10 9 7 7 6 5 6 6 6 7 5 5 7 8 8 9 9 10 10 10 10 12 12 12 14 15 15 15 15 15 15 16 16 17 16 17 16 15 15 13 13 14 13 12 11 11 12 11 11 10 10 9 9 9 8 9 9 10 9 9 10 11 12 8 10 16 15 16 16 15 14 14
9 9 9 10 11 12 11 10 12 10 9 10 9 9 9 9 8 8 6 6 8 7 6 6 6 6 6 7 8 9 10 10 10 10 10 10 11 11 12 14 14 14 15 16 17 18 19 20 20 18 18 17 16 14 14 13 14 15 13 13 13 12 11 11 11 10 10 10 9 9 9 9 9 10 9 9 9 10 12 12 8 8 13 17 17 14 11
13 11 10 10 12 12 12 11 8 10 11 11 11 10 9 9 6 6 6 8 7 5 6 6 6 6 6 7 8 8 10 11 10 10 9 10 10 11 12 13 14 15 17 17 17 18 20 19 20 20 19 17 16 15 15 15 15 14 14 13 12 12 16 14 12 11 10 10 10 9 9 10 10 10 10 10 9 9 10 11 11 11 9 7 8 10 5
10 10 10 12 11 11 9 10 11 12 10 10 11 9 8 8 9 8 9 8 7 7 7 6 6 6 7 6 7 8 9 9 9 10 9 10 11 11 12 13 13 14 15 16 16 17 18 18 18 18 19 16 15 15 15 15 16 15 12 11 9 10 11 13 11 10 10 10 9 9 10 10 10 10 10 9 9 8 9 10 11 11 11 9 8 6 10
8 11 12 12 12 8 9 11 9 10 9 8 9 9 9 10 11 10 8 8 8 8 7 7 6 6 6 7 7 8 8 9 9 9 9 9 11 11 11 12 12 13 14 14 14 15 16 17 18 17 17 15 14 15 16 15 15 13 12 11 10 11 11 11 10 9 10 9 9 9 9 10 11 10 9 9 9 9 9 9 9 10 11 11 10 7 7
6 7 13 12 11 11 11 11 10 11 11 11 12 11 11 12 11 9 9 9 8 8 7 6 5 5 6 7 7 7 7 8 8 9 10 10 10 10 11 11 11 11 12 13 14 14 15 16 16 17 16 14 14 15 15 15 13 13 11 10 9 8 9 10 8 7 8 9 11 11 10 10 10 10 10 10 10 10 9 9 9 10 9 10 10 10 9
5 7 14 13 10 11 12 13 11 10 9 12 13 13 13 12 11 9 10 9 8 7 4 5 5 6 6 7 7 6 7 6 7 8 9 10 9 9 9 10 11 11 11 12 13 13 13 15 14 14 16 16 14 11 10 8 8 9 8 7 8 10 10 7 6 9 12 12 11 11 10 10 10 10 10 10 10 10 10 9 9 9 9 9 9 9 9
9 10 12 13 11 11 12 12 11 10 11 12 14 15 14 13 12 11 10 8 7 6 5 6 6 7 6 6 5 6 6 5 7 8 9 9 8 8 9 10 10 11 11 12 11 12 11 11 14 14 13 15 12 6 4 4 4 6 7 7 8 9 8 7 6 7 9 11 11 11 11 10 10 10 10 9 9 9 9 10 10 10 9 9 8 8 6
12 13 15 13 11 12 12 12 9 8 12 17 15 13 12 11 10 9 8 8 6 6 6 6 6 6 5 4 4 5 5 6 7 8 8 8 9 9 9 9 9 10 11 10 10 9 10 10 10 12 13 13 12 10 8 7 7 7 8 8 9 9 9 10 10 10 11 11 11 11 10 10 10 10 10 10 9 9 9 9 9 9 8 9 8 6 4
10 11 9 9 9 10 12 12 9 9 12 14 13 13 11 11 10 9 8 7 6 6 6 6 6 5 5 4 4 5 5 6 7 7 8 9 9 10 9 9 9 10 10 10 10 8 9 9 9 10 12 13 12 10 9 8 8 8 8 9 9 10 10 10 10 10 10 10 10 10 10 10 10 10 10 9 8 8 8 8 8 8 9 8 7 7 4
10 11 10 10 13 11 10 10 9 9 10 14 13 12 11 10 9 8 8 7 8 7 6 5 5 5 4 4 4 5 5 5 6 8 9 9 9 9 9 9 10 9 10 9 8 8 10 10 10 11 13 13 13 12 10 10 9 8 9 9 10 10 10 10 10 11 10 10 9 10 9 9 10 9 9 8 9 8 8 7 7 8 8 8 8 7 6
8 8 8 9 8 10 10 10 11 11 7 10 11 11 10 10 10 9 10 9 6 5 5 5 5 5 4 4 3 4 4 4 5 6 7 8 8 8 9 9 9 10 9 10 8 10 11 9 13 18 14 11 11 10 11 10 9 9 9 9 9 9 10 10 10 10 10 10 9 9 9 9 9 9 10 10 9 8 8 7 7 7 7 7 7 7 7
7 7 7 8 8 8 7 6 7 8 8 7 11 10 10 11 10 9 9 7 7 6 6 5 4 4 4 2 2 2 3 3 5 5 5 6 7 8 9 10 9 8 10 9 9 11 11 9 14 19 13 9 10 10 11 14 9 9 9 9 9 9 9 9 10 10 9 9 9 9 9 8 9 10 9 8 9 8 8 7 6 6 6 7 7 6 6
7 7 8 8 6 5 9 8 9 8 11 16 12 9 10 9 8 8 8 8 7 6 5 5 4 3 3 2 2 2 2 3 5 5 7 7 8 8 9 8 8 8 8 9 10 10 9 11 16 12 9 8 8 9 11 15 15 11 9 9 9 9 9 9 9 10 10 10 9 9 8 8 9 9 9 9 8 8 7 7 6 6 6 6 6 6 6
9 7 8 8 6 9 8 4 6 8 9 10 9 9 9 8 9 9 8 8 6 5 5 5 4 4 2 2 2 1 2 3 4 6 6 7 8 9 8 8 7 8 7 9 10 9 9 10 10 9 9 9 10 10 12 14 15 10 10 9 10 9 9 9 9 9 10 9 9 7 7 8 8 9 8 9 8 7 7 6 6 6 6 5 6 6 6
11 12 8 8 8 9 8 7 3 3 6 7 8 9 8 9 8 8 8 7 7 6 5 4 4 3 3 1 1 2 1 3 4 5 6 6 8 8 8 7 6 7 8 10 10 9 11 14 11 8 8 9 9 9 10 13 14 10 9 9 9 9 9 9 9 9 9 9 9 8 7 7 8 8 8 8 7 7 6 6 5 5 5 5 5 5 6
4 6 12 12 9 8 9 9 10 9 7 8 9 8 8 8 8 8 8 8 7 6 5 4 4 3 2 1 1 1 3 4 4 5 6 7 8 7 7 8 7 6 7 8 9 9 9 9 9 9 8 9 9 11 11 14 12 10 9 8 8 8 8 8 8 9 8 8 7 7 7 6 6 7 7 7 7 6 6 5 5 4 4 5 4 5 5
8 5 3 9 12 10 10 9 9 10 11 10 8 9 9 9 8 8 8 7 7 6 6 5 3 1 3 2 2 3 4 4 5 5 6 7 7 7 8 6 7 7 9 10 11 10 9 8 9 9 9 10 10 14 17 13 10 9 8 8 7 8 8 8 8 8 7 7 7 6 6 5 5 6 6 7 7 6 6 5 4 4 4 4 4 4 4
10 8 6 4 5 8 5 4 8 10 12 10 10 8 9 9 8 8 8 7 7 7 6 6 6 4 3 3 2 3 3 3 5 4 4 5 6 4 6 7 8 8 10 10 10 9 8 8 8 9 14 13 12 17 17 11 8 8 7 7 8 8 8 7 7 7 7 6 6 6 5 5 4 4 5 6 6 6 5 5 4 3 2 3 3 3 3
11 10 7 6 5 6 5 4 6 2 6 11 11 10 10 9 9 9 8 8 7 7 7 6 6 5 4 2 2 3 2 3 4 3 5 5 6 4 6 6 8 9 12 10 9 9 8 8 7 13 16 18 18 18 12 9 8 8 8 8 7 7 7 7 6 6 6 6 6 5 5 4 4 4 4 4 5 5 4 4 3 2 2 3 3 3 4
9 8 10 9 8 5 7 7 7 9 10 9 10 10 9 10 9 8 8 8 8 7 6 6 5 4 3 2 2 2 2 2 3 4 4 5 5 5 5 7 7 8 9 11 8 8 8 9 12 17 15 17 16 15 8 7 7 8 8 8 8 7 6 7 6 6 6 6 5 5 4 4 4 3 3 3 4 4 4 4 3 3 2 3 3 3 4
8 7 8 9 9 8 5 5 5 4 6 10 11 10 9 8 8 8 7 7 7 6 6 4 4 2 1 2 2 2 3 2 1 3 2 3 4 5 5 6 7 8 11 11 7 7 8 13 16 16 16 15 15 9 7 8 8 8 7 7 8 8 7 7 6 6 5 5 5 4 4 4 3 3 2 3 3 3 3 3 3 3 3 4 4 4 4
7 6 4 7 5 4 6 7 8 6 4 5 7 8 8 8 8 7 7 7 6 6 5 4 3 2 2 2 2 3 3 2 1 0 3 4 4 4 5 6 6 9 10 6 5 6 8 11 13 15 14 13 12 7 7 7 7 7 7 6 6 6 7 7 7 7 6 4 4 4 4 4 3 2 2 2 2 2 2 2 3 3 4 5 5 6 5
6 5 3 5 6 5 7 9 9 7 7 7 7 8 8 8 8 8 7 6 6 5 5 4 3 3 2 3 1 2 2 3 4 2 2 4 4 5 5 5 6 8 9 7 7 7 10 12 13 14 13 11 8 7 7 8 7 7 7 7 6 6 6 6 6 6 6 6 5 3 2 2 3 3 2 3 3 4 4 5 4 5 5 6 6 6 6
7 2 1 6 5 6 7 9 10 8 8 8 8 8 10 10 9 8 7 7 7 6 5 5 5 3 2 1 2 2 2 1 3 3 3 4 4 4 5 4 4 7 7 6 6 6 9 11 12 13 13 11 8 8 8 7 8 8 7 7 6 7 7 6 6 6 5 5 5 5 5 5 5 5 5 4 4 5 5 5 5 5 5 6 6 7 6
6 4 1 3 3 4 4 7 9 8 11 10 9 8 8 8 8 7 6 6 6 6 5 5 4 3 2 1 1 1 2 1 1 1 2 3 4 3 4 5 4 4 5 6 6 6 8 11 12 12 10 8 8 8 8 9 9 9 8 8 7 6 8 8 8 9 7 6 7 6 6 5 5 6 6 5 5 5 6 6 6 6 7 6 6 6 6
4 2 1 1 2 3 6 6 6 9 9 8 6 5 5 7 7 7 6 6 5 3 5 4 2 2 1 1 0 1 1 0 2 3 3 2 2 3 4 4 4 4 5 5 6 6 6 7 7 8 9 8 8 8 8 8 8 9 9 8 8 7 7 9 8 8 9 8 7 7 7 6 5 6 6 6 6 6 6 6 6 6 6 5 6 6 6
4 3 2 2 5 6 8 7 6 8 9 8 6 6 5 4 5 6 5 2 3 3 2 4 2 0 0 1 1 1 1 2 1 2 2 3 3 4 3 4 3 3 4 4 5 5 5 6 6 7 8 7 7 8 8 9 8 7 8 9 8 8 8 8 8 8 9 9 8 8 7 6 6 7 6 6 7 7 7 7 7 7 6 6 6 6 6
Wind_Direction
39 5 21 7 11 20 74 4 360 228 338 278 246 296 332 325 279 187 151 138 132 134 128 126 105 93 102 92 86 79 70 70 76 58 48 56 52 45 40 40 40 32 28 25 24 24 21 20 18 16 12 15 19 25 7 5 19 6 337 270 245 233 214 211 204 206 204 212 209 205 212 206 210 219 216 209 207 208 212 213 208 215 217 216 204 200 204
268 289 283 117 273 180 240 228 193 258 257 201 269 226 348 22 100 119 149 139 129 127 136 126 120 116 79 54 74 74 78 84 74 66 54 45 48 48 41 39 40 35 30 25 24 21 22 21 22 19 17 6 11 10 9 6 5 4 339 327 276 261 268 226 220 214 212 221 217 213 208 209 207 213 220 217 212 208 209 213 216 211 217 219 218 205 203
175 227 230 230 241 269 244 197 216 225 230 219 246 5 66 103 152 151 140 134 121 103 115 119 130 119 95 91 85 79 53 16 27 60 59 45 41 40 38 40 38 32 29 27 22 20 23 21 23 24 16 8 2 2 360 8 7 4 354 339 334 320 273 234 235 247 241 223 225 225 211 212 211 213 218 223 220 209 207 210 213 208 215 219 221 219 208
177 175 208 191 227 237 249 217 210 217 202 217 178 236 164 238 163 159 156 155 147 134 127 140 140 133 123 112 83 78 66 67 50 48 31 48 43 36 29 31 32 26 23 25 20 18 19 21 20 16 14 9 8 2 357 358 4 8 352 355 318 291 289 271 244 235 240 253 237 225 223 216 215 215 217 222 227 222 216 213 208 216 212 216 221 225 222
197 130 196 189 193 227 229 226 211 200 212 260 200 79 71 355 166 181 184 172 127 145 161 163 155 144 127 116 86 82 84 79 63 49 45 31 26 36 22 21 25 22 18 17 19 14 12 16 18 17 15 11 11 0 359 348 4 359 352 346 329 319 307 306 299 260 235 233 239 240 231 221 219 218 218 219 220 222 220 219 216 213 218 214 215 221 227
153 139 176 185 223 223 213 43 158 187 196 162 172 172 171 106 331 51 73 108 120 155 178 176 154 128 120 115 117 75 72 81 67 78 66 56 36 20 22 16 20 18 12 13 13 9 7 11 9 10 13 4 8 357 353 359 7 4 2 350 351 293 284 280 286 307 288 264 246 237 240 243 228 222 219 217 219 218 219 214 215 216 218 221 218 216 222
202 147 162 210 222 210 81 96 75 64 42 85 227 87 100 132 119 122 124 137 135 91 133 66 84 86 129 158 136 121 87 0 68 46 43 37 47 32 24 20 16 13 8 8 6 4 2 4 5 359 10 7 360 359 355 2 1 3 5 2 348 342 336 320 308 292 288 264 248 243 234 234 240 238 228 223 220 222 220 214 211 211 214 214 216 216 218
35 176 195 206 184 85 122 88 114 75 221 201 212 173 128 151 179 166 162 128 140 150 171 171 154 200 199 167 154 151 105 34 357 26 46 33 30 35 21 25 12 15 4 4 0 355 349 357 3 356 2 360 358 360 356 12 6 360 360 358 354 346 337 331 334 338 329 323 300 267 248 238 230 232 236 231 230 226 230 226 218 215 216 221 218 216 218
249 212 215 190 103 175 141 175 154 196 181 180 211 219 192 186 204 195 188 164 183 203 191 187 246 174 227 223 181 149 169 111 50 35 38 30 23 22 19 15 5 22 11 356 355 341 347 350 1 352 357 357 353 357 359 358 357 8 1 359 354 345 339 338 338 334 327 316 309 303 274 249 236 233 233 233 232 231 229 234 233 221 217 218 220 222 220
251 262 235 190 181 239 186 159 150 155 130 46 229 275 166 150 161 196 160 165 183 155 344 100 188 186 235 237 159 142 110 93 68 26 34 18 24 14 7 0 351 14 7 350 343 337 339 347 360 345 353 355 355 353 355 355 356 355 357 354 347 343 339 337 331 324 318 309 299 297 292 280 264 256 246 242 240 230 232 234 239 239 227 223 220 221 225
196 238 257 239 220 171 92 121 123 111 107 159 83 231 215 160 156 167 159 172 153 150 160 142 206 228 230 177 103 80 66 58 36 10 9 356 360 357 0 351 354 2 350 335 325 328 336 346 350 332 348 352 352 352 351 350 344 347 350 348 344 340 335 332 326 322 318 314 307 290 287 286 319 352 321 310 305 308 281 270 258 259 262 244 232 226 226
241 243 229 245 256 139 132 122 141 133 141 111 225 223 197 138 153 143 180 170 146 152 118 212 254 260 238 90 56 41 10 16 15 24 3 348 348 343 341 347 6 342 326 320 320 330 331 349 329 326 343 345 345 345 346 340 343 346 344 340 338 335 334 326 323 320 317 316 314 308 295 286 275 178 279 305 320 327 328 304 290 272 261 258 256 242 232
208 229 261 265 117 111 142 148 133 133 140 212 222 232 113 154 114 123 126 129 122 129 172 208 239 197 6 34 359 344 354 349 7 356 350 349 350 344 337 351 346 321 324 329 328 322 329 329 319 324 345 337 334 335 334 331 340 340 337 333 331 334 331 328 322 318 320 321 321 315 312 301 291 126 24 310 263 225 230 219 228 236 245 247 244 242 237
247 208 238 241 43 91 127 133 132 126 167 203 224 83 107 109 115 135 142 122 147 148 229 159 280 352 342 330 332 346 346 351 346 346 351 350 348 340 345 337 320 325 326 325 321 322 324 316 320 331 333 323 320 322 319 321 329 329 330 329 328 329 327 330 326 320 323 322 314 308 309 315 302 156 168 221 239 224 214 234 237 244 252 256 259 253 244
248 257 245 241 246 151 173 132 147 166 237 70 104 128 119 135 125 145 146 165 140 177 171 191 259 280 322 335 335 336 340 340 342 344 351 346 342 341 334 329 339 337 329 324 321 322 319 324 330 322 318 314 310 306 305 314 320 322 324 322 325 322 322 322 326 322 317 318 314 307 306 307 305 281 227 225 214 225 241 248 254 270 268 255 251 251 249
253 217 231 244 3 118 145 163 242 162 306 107 128 126 137 120 151 179 160 175 168 131 240 313 307 329 317 286 307 325 321 325 331 334 341 341 337 332 329 333 336 338 324 322 321 318 320 318 313 312 306 304 302 301 301 309 311 314 313 317 317 318 317 317 318 320 316 310 312 307 307 305 297 297 266 258 258 243 241 249 253 255 256 254 249 245 246
249 305 23 68 139 145 159 166 76 82 111 129 125 328 350 172 177 157 260 153 153 210 171 209 270 269 243 298 319 312 320 316 329 339 335 331 329 329 333 330 334 327 326 321 317 313 314 314 311 307 303 296 295 293 299 302 305 308 311 310 314 315 315 313 315 316 313 310 313 319 321 314 307 300 286 261 254 251 247 244 250 254 260 264 262 261 267
299 301 14 113 102 145 164 169 132 151 147 143 179 205 207 193 281 153 233 117 150 151 167 263 232 230 310 309 292 302 320 323 319 320 322 323 327 326 326 326 332 327 317 311 310 309 310 311 310 304 298 295 291 295 298 297 299 297 298 308 311 312 310 312 314 313 313 314 318 327 321 310 303 292 290 284 276 266 250 251 253 255 260 268 275 291 302
287 255 197 212 201 196 213 232 161 194 175 172 196 197 219 161 167 178 153 212 155 221 184 226 243 279 276 268 297 326 314 305 315 315 320 321 320 323 323 325 325 317 318 310 307 308 308 310 310 307 301 298 297 297 294 290 286 286 300 309 306 304 308 311 310 308 314 317 324 317 308 309 303 298 284 277 283 283 277 275 276 277 274 277 286 280 270
237 245 121 355 320 265 218 223 201 194 209 184 193 213 203 213 172 187 168 175 211 209 221 206 222 247 255 288 292 286 295 315 312 312 314 319 318 317 319 317 316 313 307 307 305 306 305 305 303 301 298 294 291 289 288 289 291 295 296 298 300 303 304 305 302 306 310 313 310 308 313 316 309 307 309 303 284 271 270 271 274 278 292 297 278 265 270
241 250 259 236 221 233 233 225 236 229 201 191 195 220 232 204 191 193 198 205 238 220 240 254 242 247 265 280 299 299 299 295 305 304 306 308 314 315 311 313 312 307 309 305 304 302 300 300 298 296 296 294 291 288 286 284 284 281 282 284 290 296 298 295 297 300 298 304 311 314 314 305 305 313 310 307 311 312 307 285 254 248 228 211 241 253 260
240 252 250 223 238 230 211 221 228 231 217 211 223 210 227 222 208 202 211 202 214 232 244 251 231 251 254 262 268 284 304 306 291 300 309 313 313 313 312 309 309 307 302 302 301 300 299 299 294 292 290 289 288 285 285 282 278 275 277 281 287 291 291 292 294 301 311 312 308 310 309 309 311 310 312 300 268 281 294 305 285 268 246 237 236 247 260
257 253 276 346 341 307 300 300 245 239 243 242 240 227 225 230 226 215 213 219 213 223 229 227 245 243 252 272 290 295 290 297 307 311 309 308 307 306 311 309 306 305 304 301 300 298 297 294 293 290 288 285 285 284 281 278 275 273 273 279 283 285 288 288 301 313 304 299 305 308 304 304 309 311 308 306 275 236 236 260 276 277 265 255 257 252 239
286 289 288 280 276 277 281 265 253 229 218 230 232 232 228 228 227 213 217 223 236 226 224 240 250 272 287 289 293 295 302 302 301 303 306 308 306 307 304 301 300 301 303 303 301 300 298 297 294 293 288 284 283 282 277 273 270 267 267 270 273 278 284 288 293 293 295 297 296 295 301 300 301 305 309 306 310 280 225 233 253 265 270 266 256 246 243
260 293 310 308 293 282 275 271 256 240 235 227 228 226 224 221 222 221 212 212 214 229 233 247 261 266 281 286 286 288 294 298 297 303 310 306 301 298 300 303 304 305 306 306 303 301 299 296 292 288 285 283 281 280 282 280 272 263 258 260 264 271 276 284 286 288 289 293 293 294 296 296 294 300 304 306 307 313 299 221 233 248 260 258 253 246 240
265 271 279 279 278 268 261 258 257 245 221 221 225 225 221 216 218 215 210 211 229 235 263 283 283 277 293 298 294 295 294 293 309 312 300 300 304 305 305 306 308 307 305 307 307 304 300 294 289 284 281 280 278 275 272 266 264 262 258 257 262 267 273 279 285 289 290 284 286 287 285 283 288 292 294 297 302 307 307 313 290 252 250 256 258 262 264
256 250 243 255 254 247 242 243 252 244 213 214 222 216 203 197 199 223 236 241 237 249 255 257 265 282 286 278 284 291 294 299 297 294 306 307 307 310 311 308 308 308 307 306 304 300 295 290 287 282 273 272 277 277 274 274 270 261 255 253 254 264 272 276 276 277 274 276 280 283 285 284 283 284 287 290 294 292 297 300 302 301 307 284 246 208 237
267 247 234 239 237 240 248 242 219 243 230 199 200 210 204 199 192 197 216 230 237 237 235 236 247 258 266 271 283 287 288 293 302 310 308 309 312 310 308 311 312 313 310 306 304 307 307 300 290 283 279 273 270 270 270 266 267 264 258 256 255 260 269 272 275 275 276 279 281 281 280 281 281 283 288 286 281 286 290 289 290 296 299 301 305 280 257
261 266 247 232 244 233 226 242 235 220 216 200 198 206 193 206 212 208 218 224 226 232 230 232 243 256 263 276 280 287 294 299 303 307 315 318 312 314 313 315 316 311 304 303 310 319 320 319 310 291 281 274 270 273 270 269 265 262 252 245 250 254 256 263 270 280 285 290 289 284 289 287 284 279 273 273 280 285 284 286 289 297 296 304 301 293 242
245 267 265 245 236 239 238 236 226 215 208 205 204 204 205 209 217 214 220 222 223 224 232 247 252 254 268 275 280 289 301 306 306 313 310 310 310 310 311 315 313 307 308 313 320 324 323 325 323 309 290 280 273 269 273 272 266 257 248 251 264 277 282 284 300 317 314 298 282 282 275 269 264 266 269 274 279 281 280 280 291 293 293 298 306 300 303
255 255 266 259 239 237 236 234 224 212 221 212 201 202 199 210 221 221 220 224 221 222 221 236 239 254 264 275 287 299 297 300 303 305 306 308 310 315 318 318 317 317 319 320 322 324 327 326 328 341 331 299 274 275 277 273 271 261 258 263 266 265 259 259 270 277 279 274 277 278 275 271 273 275 277 280 279 280 281 284 285 286 292 296 294 302 310
286 270 255 253 243 239 237 233 224 205 209 223 205 199 197 199 206 212 215 219 221 230 226 221 242 256 268 278 288 285 285 295 299 307 307 308 316 321 317 313 313 314 316 317 318 326 325 326 330 336 341 344 340 335 311 292 294 283 278 284 285 280 267 216 242 251 260 267 270 272 271 274 274 275 277 275 276 280 285 286 286 288 291 291 294 301 350
226 239 241 234 234 237 238 234 212 209 219 211 201 198 199 199 205 206 207 212 207 207 213 236 250 259 270 283 286 280 286 293 300 301 304 312 317 318 316 313 313 316 314 316 320 325 333 332 326 329 336 335 333 340 340 325 306 290 285 285 287 285 290 294 286 280 276 273 273 270 270 270 275 276 275 277 279 282 282 282 286 287 288 290 294 310 62
267 264 273 280 254 238 235 230 203 218 220 208 198 197 199 205 206 198 194 195 202 205 223 232 239 253 261 270 264 269 282 295 303 312 315 315 314 311 315 315 314 312 313 318 324 330 336 328 325 328 330 327 323 320 314 310 303 302 296 290 282 280 280 278 270 268 270 272 271 274 276 278 275 273 274 275 279 280 280 284 287 290 289 291 294 295 73
269 265 249 230 243 238 235 226 192 191 223 218 194 194 196 197 199 191 179 187 194 209 219 233 240 246 264 263 269 274 291 305 315 314 316 318 322 323 315 314 314 316 321 327 342 342 334 325 326 330 329 323 319 313 309 307 309 302 296 291 288 286 287 281 280 277 281 280 283 281 277 277 275 277 278 281 279 278 278 280 285 287 291 293 293 296 315
275 258 250 249 255 260 247 215 193 194 204 248 211 189 187 183 187 183 169 185 193 206 216 224 230 243 243 243 252 280 307 326 334 325 325 331 324 320 317 315 319 319 320 318 333 336 331 327 332 331 325 319 314 311 314 319 317 314 309 304 297 291 283 281 280 279 277 278 279 280 286 290 294 291 285 279 276 277 279 281 281 287 292 294 297 306 308
271 259 254 244 239 243 243 182 179 188 163 231 237 180 181 174 189 176 163 180 189 196 207 221 226 232 247 247 280 294 295 310 316 324 322 317 315 321 322 322 323 324 322 318 337 333 328 328 332 331 326 317 315 315 314 317 316 309 301 294 288 284 281 279 279 275 277 276 278 281 285 285 278 278 273 272 275 278 280 282 288 294 295 299 304 308 311
286 264 244 240 243 241 246 182 171 195 205 204 193 171 174 171 173 176 178 175 178 192 200 206 220 228 233 206 216 240 305 329 316 314 310 313 317 317 315 317 321 321 324 325 329 325 327 330 332 330 320 315 315 317 313 312 312 309 298 294 287 286 285 285 286 284 281 277 282 287 289 287 286 284 284 283 280 281 284 286 291 297 301 304 310 314 316
286 257 252 235 208 228 219 208 204 196 186 169 165 165 167 168 165 165 175 178 174 182 188 199 193 200 182 227 253 329 347 328 314 309 313 317 321 318 318 315 320 320 315 321 324 325 326 328 327 325 320 318 321 318 315 314 315 310 300 291 289 283 283 279 280 282 288 291 286 281 280 282 284 284 282 281 284 285 285 291 300 301 303 312 319 320 323
305 293 259 235 232 216 205 179 143 160 165 166 168 169 168 167 168 170 170 169 165 175 193 181 192 191 184 206 276 286 299 291 302 298 303 312 316 312 315 309 331 331 330 329 329 327 330 330 327 324 322 321 323 316 313 314 315 306 298 292 289 289 287 287 285 284 284 284 284 288 285 283 283 283 284 286 286 286 290 293 292 299 308 315 318 325 330
268 283 297 276 232 212 205 180 179 175 170 176 176 167 169 168 167 171 178 167 159 171 183 177 187 171 162 162 242 270 278 284 288 295 313 314 315 314 319 326 358 348 341 336 330 320 324 327 333 329 329 330 322 320 318 319 315 301 299 301 302 299 296 292 288 288 287 290 290 290 291 296 303 299 288 284 284 288 288 290 296 308 315 319 322 332 335
306 285 281 300 276 234 207 201 198 199 195 186 183 175 175 182 176 178 168 157 152 166 163 143 90 134 158 180 204 255 275 287 292 304 318 317 314 323 322 330 339 340 4 330 325 328 330 332 337 331 329 325 320 323 323 317 308 308 308 308 303 299 293 293 292 293 291 288 288 288 292 296 301 300 302 295 292 290 295 299 304 316 324 324 329 339 344
304 292 279 271 282 316 344 296 239 205 194 186 169 179 177 172 170 164 165 160 157 156 150 140 143 149 169 202 232 261 279 285 295 296 306 304 317 10 346 333 332 346 360 333 327 325 329 332 334 331 332 327 322 322 320 314 311 314 314 312 307 305 302 302 307 309 305 297 292 291 297 299 304 308 309 306 299 296 302 303 307 321 338 345 353 353 0
305 298 275 257 241 171 174 219 228 294 220 175 175 169 174 170 167 165 161 158 161 156 159 155 161 173 200 216 267 268 281 309 301 311 316 318 320 359 23 346 337 340 357 343 331 332 331 333 334 334 329 325 323 323 321 315 318 317 316 314 311 311 314 316 317 317 315 309 304 306 303 305 309 311 311 311 312 307 309 311 319 339 357 10 19 19 18
311 302 288 264 247 196 178 182 197 188 215 175 158 162 172 167 161 163 163 164 156 153 159 166 168 175 203 222 235 286 308 337 318 322 320 324 324 327 4 336 338 336 351 344 327 331 338 350 344 336 330 327 325 325 325 330 332 330 327 324 324 319 319 319 317 317 318 315 311 302 301 304 304 310 312 321 326 318 320 322 333 350 16 36 37 35 33
308 299 296 276 256 242 212 162 129 144 222 164 153 152 155 156 155 158 153 155 154 163 158 158 163 176 189 256 258 292 291 315 357 297 316 327 329 325 340 340 342 356 347 345 340 349 353 357 348 342 336 334 333 330 338 340 339 336 335 332 334 334 336 333 330 318 314 316 320 325 324 326 330 335 5 11 16 4 6 348 339 18 37 48 51 49 48
298 300 288 266 244 215 185 151 119 134 182 151 145 138 142 138 150 149 151 156 161 152 155 166 150 139 171 244 303 321 319 305 204 302 313 332 316 330 7 0 351 360 343 356 6 357 355 351 349 345 344 348 346 344 345 344 340 341 340 337 334 341 340 337 335 332 329 321 320 331 346 342 339 339 2 34 41 31 16 8 15 35 49 53 54 51 48
289 290 293 239 196 185 163 144 127 144 163 159 155 127 119 143 150 138 154 157 151 151 154 159 173 151 217 259 337 13 339 329 322 20 334 327 338 338 339 358 19 9 345 346 358 14 16 2 354 350 350 356 3 9 1 356 353 352 349 349 350 354 353 349 345 351 352 356 356 356 343 355 356 357 29 64 63 56 45 37 43 51 53 52 54 53 54
271 248 163 243 217 186 174 150 141 166 157 143 139 136 146 151 152 155 160 162 162 171 178 162 156 190 180 34 342 4 42 339 337 1 8 353 352 335 352 5 47 16 349 357 355 352 10 10 4 355 357 8 13 12 14 18 14 12 8 1 356 2 350 350 1 355 358 9 11 15 17 19 18 19 23 37 66 67 65 57 46 43 52 56 55 48 41
263 113 246 229 154 218 190 143 155 162 139 142 134 132 150 157 158 164 169 173 181 200 168 172 163 151 219 200 87 41 51 337 32 13 34 14 5 331 345 3 5 29 14 356 2 358 3 8 10 6 5 13 16 16 17 18 23 22 15 15 9 2 4 4 11 15 16 28 24 20 23 21 26 37 44 47 56 65 64 59 58 50 48 54 60 61 52
343 47 81 16 87 164 161 154 137 119 118 111 113 116 135 167 161 161 174 194 173 186 126 130 212 177 185 115 104 70 85 198 54 0 356 46 19 350 2 4 23 28 9 1 10 5 5 7 8 8 9 17 17 18 18 18 22 28 23 16 18 15 16 17 17 17 17 18 27 26 19 25 39 41 38 45 51 56 61 59 52 43 38 42 49 52 55
60 77 94 90 84 106 97 96 99 107 104 103 120 147 176 156 143 179 156 164 170 182 145 125 156 148 17 68 37 51 48 22 53 100 58 11 354 343 11 7 18 55 21 10 16 19 14 10 14 27 18 14 18 20 25 25 27 29 32 29 23 25 29 28 27 30 27 20 12 16 25 16 12 24 36 46 53 58 62 61 60 54 44 37 40 46 48